[[{"header":{"parameterUnit":"m.s-1","parameterCategory":1,"la1":30.2991,"la2":30.254,"lo1":-89.0895,"lo2":-89.0444,"dy":0.0017,"dx":0.0017,"nx":28,"ny":28,"refTime":"2025-04-29T03:00:00:Z","depth":0,"parameterNumber":2,"parameterNumberName":"U-component_of_WINDS"},"data":[0,0,0,0,0,0,0,0,0,0,0,0,0,0,0,0,0,0,0,0,0,0,0,0,0,0,0,0,0,0,0,0,0,0,0,0,0,0,0,0,0,0,0,0,0,0,0,0,0,0,0,0,0,0,0,0,0,0,-3.2547,-3.2548,0,-3.265,-3.2651,-3.2652,-3.2652,-3.2651,-3.265,-3.2648,-3.2751,-3.2755,-3.2759,0,0,0,0,0,0,0,0,0,0,0,0,0,-3.2347,-3.2351,-3.2546,-3.2548,-3.2549,-3.265,-3.2651,-3.2652,-3.2653,-3.2651,-3.2649,-3.2648,-3.275,-3.2754,-3.2759,0,0,0,0,0,0,0,0,0,0,0,0,0,-3.244,-3.2352,-3.2546,-3.2561,-3.2564,-3.2649,-3.2651,-3.2653,-3.2653,-3.2651,-3.2649,-3.2647,-3.2748,-3.2754,-3.276,-3.2836,0,0,-3.2778,-3.278,0,0,0,0,0,0,0,0,-3.2435,-3.2448,-3.2558,-3.256,-3.2563,-3.2636,-3.2618,-3.2714,-3.2653,-3.2619,-3.2648,-3.2646,-3.2714,-3.2723,-3.2746,-3.2841,-3.2845,-3.2778,-3.2782,-3.2785,-3.2786,0,0,0,0,0,0,0,-3.2429,-3.2443,-3.2587,-3.2559,-3.2563,-3.2562,-3.2573,-3.2637,-3.2676,-3.2622,-3.2622,-3.2634,-3.2715,-3.2741,-3.2749,-3.2847,-3.2778,-3.2783,-3.2787,-3.2789,-3.301,-3.3012,0,0,0,0,0,0,-3.2419,-3.2438,-3.2584,-3.259,-3.2493,-3.2567,-3.258,-3.2615,-3.2676,-3.2683,-3.2636,-3.2634,-3.2731,-3.2742,-3.2752,-3.2846,-3.2784,-3.279,-3.2793,-3.3008,-3.3011,-3.3013,0,0,0,0,0,0,-3.2415,-3.2432,-3.258,-3.2514,-3.2533,-3.2573,-3.2612,-3.2618,-3.2643,-3.2687,-3.2693,-3.2655,-3.273,-3.2744,-3.2816,-3.2849,-3.2793,-3.2798,-3.3005,-3.3009,-3.3012,-3.3034,0,0,0,0,0,0,-3.2409,-3.2431,-3.2461,-3.2515,-3.2537,-3.2642,-3.2614,-3.2621,-3.2654,-3.2652,-3.2706,-3.2713,-3.273,-3.2807,-3.2822,-3.2857,-3.2803,-3.3002,-3.3007,-3.3011,-3.303,-3.3037,-3.3044,0,0,0,0,0,-3.2402,-3.2462,-3.2462,-3.248,-3.2575,-3.2644,-3.2656,-3.2675,-3.2657,-3.2687,-3.2715,-3.2711,-3.2844,-3.2814,-3.2831,-3.2868,-3.3,-3.3005,-3.301,-3.3027,-3.3036,-3.3044,0,0,0,0,0,0,-3.2409,-3.2469,-3.247,-3.2549,-3.2592,-3.2644,-3.2682,-3.2684,-3.2732,-3.2728,-3.2749,-3.2761,-3.2833,-3.2858,-3.2824,-3.2946,-3.292,-3.2928,-3.2926,-3.2935,-3.2942,-3.2934,-3.2808,0,0,0,0,0,-3.242,-3.2472,-3.2522,-3.2587,-3.2608,-3.2642,-3.2673,-3.2684,-3.2728,-3.2746,-3.2779,-3.2821,-3.2872,-3.2906,-3.2955,-3.3035,-3.3046,-3.3068,-3.3075,-3.3081,-3.3087,-3.3131,-3.3142,-3.303,-3.303,-3.303,0,0,-3.2443,-3.2482,-3.2513,-3.2589,-3.2623,-3.2676,-3.2657,-3.2713,-3.2752,-3.2754,-3.2824,-3.285,-3.2898,-3.2974,-3.301,-3.2997,-3.3121,-3.3087,-3.3091,-3.3095,-3.3137,-3.3148,-3.3157,-3.3034,-3.3033,-3.3032,0,0,-3.2511,-3.2546,-3.2604,-3.264,-3.2692,-3.2715,-3.2729,-3.2781,-3.2799,-3.287,-3.2872,-3.2919,-3.3007,-3.3041,-3.307,-3.3154,-3.3152,-3.3169,-3.3204,-3.3247,-3.3255,-3.3263,-3.3292,-3.3302,-3.3176,-3.3176,-3.3177,0,-3.2532,-3.2612,-3.2634,-3.2691,-3.2724,-3.273,-3.2789,-3.2822,-3.2887,-3.2909,-3.2896,-3.3007,-3.304,-3.3124,-3.3145,-3.3168,-3.3184,-3.3162,-3.3253,-3.3261,-3.3268,-3.3296,-3.3307,-3.3178,-3.3178,-3.3178,-3.3178,0,-3.2635,-3.2691,-3.2732,-3.2797,-3.2834,-3.2892,-3.2922,-3.2957,-3.2966,-3.299,-3.3062,-3.3102,-3.316,-3.3182,-3.319,-3.3267,-3.3258,-3.3248,-3.3222,-3.328,-3.3307,-3.3318,-3.3181,-3.318,-3.3179,-3.3179,0,0,-3.2709,-3.2786,-3.28,-3.283,-3.2889,-3.2932,-3.2991,-3.3049,-3.3079,-3.3124,-3.3173,-3.3248,-3.324,-3.3273,-3.3286,-3.3323,-3.3386,-3.3309,-3.331,-3.3321,-3.3473,-3.3479,-3.3491,-3.3386,-3.3388,-3.339,-3.3468,0,-3.2782,-3.2886,-3.2908,-3.2998,-3.3049,-3.3057,-3.3107,-3.3149,-3.3173,-3.3219,-3.3246,-3.3298,-3.3284,-3.3304,-3.3342,-3.337,-3.3416,-3.3365,-3.343,-3.3432,-3.3416,-3.3505,-3.3511,-3.3583,-3.3479,-3.3481,-3.3482,0,-3.2882,-3.2931,-3.3026,-3.3079,-3.3102,-3.3147,-3.3202,-3.3247,-3.3294,-3.3309,-3.3347,-3.3356,-3.3416,-3.3389,-3.3472,-3.3436,-3.3464,-3.3483,-3.3486,-3.3491,-3.3459,-3.3511,-3.3607,-3.3617,-3.3499,-3.3497,-3.3496,0,-3.2925,-3.3015,-3.3083,-3.3109,-3.3173,-3.3204,-3.3232,-3.3278,-3.3311,-3.336,-3.3382,-3.3436,-3.3465,-3.3507,-3.353,-3.3508,-3.3611,-3.3586,-3.3624,-3.3624,-3.3644,-3.3642,-3.3744,-3.3664,-3.3664,-3.3664,-3.3664,0,-3.3004,-3.3061,-3.3104,-3.3146,-3.321,-3.3235,-3.3298,-3.3326,-3.3367,-3.3414,-3.3424,-3.3467,-3.3496,-3.3544,-3.3563,-3.3628,-3.3641,-3.3654,-3.3658,-3.3653,-3.3651,-3.367,-3.3665,-3.3667,-3.3666,-3.3666,-3.3665,0,-3.3062,-3.3093,-3.3168,-3.3223,-3.3238,-3.3283,-3.333,-3.3371,-3.3396,-3.3456,-3.3471,-3.351,-3.3567,-3.3595,-3.3665,-3.3677,-3.3751,-3.3752,-3.3735,-3.3736,-3.3773,-3.3769,-3.389,-3.3906,-3.3817,-3.3818,-3.3819,0,-3.311,-3.3154,-3.3215,-3.3248,-3.3277,-3.3329,-3.3364,-3.3391,-3.3426,-3.3485,-3.3518,-3.3576,-3.3623,-3.3714,-3.3748,-3.3802,-3.3804,-3.3842,-3.3812,-3.3805,-3.3803,-3.38,-3.3804,-3.3847,-3.3848,-3.3849,-3.3849,0,-3.3191,-3.3205,-3.3255,-3.3311,-3.3353,-3.3398,-3.3443,-3.3469,-3.3502,-3.3542,-3.3601,-3.3638,-3.3711,-3.3768,-3.3825,-3.3852,-3.3856,-3.3859,-3.3871,-3.3865,-3.3852,-3.3859,-3.3749,-3.3856,-3.3855,-3.3855,-3.3854,-3.3854,-3.3245,-3.3285,-3.3334,-3.339,-3.3427,-3.3469,-3.351,-3.3541,-3.3591,-3.3653,-3.3665,-3.3727,-3.3774,-3.3851,-3.3881,-3.393,-3.3921,-3.3938,-3.3942,-3.3946,-3.3947,-3.3846,-3.394,-3.394,-3.394,-3.394,-3.394,0,-3.3326,-3.3359,-3.341,-3.3473,-3.3517,-3.3519,-3.3568,-3.3605,-3.366,-3.3704,-3.3751,-3.3819,-3.3874,-3.3913,-3.3969,-3.4001,-3.4004,-3.4015,-3.4012,-3.4018,-3.3952,-3.3936,-3.4011,-3.4011,-3.4011,-3.4011,-3.4011,-3.4011,-3.3374,-3.3442,-3.3461,-3.3547,-3.3579,-3.3641,-3.3669,-3.3708,-3.3743,-3.3819,-3.3865,-3.3891,-3.3933,-3.3993,-3.4043,-3.4053,-3.4073,-3.4084,-3.4093,-3.403,-3.4023,-3.4016,-3.4,-3.4088,-3.4088,-3.4156,-3.4156,-3.4157]},{"header":{"parameterUnit":"m.s-1","parameterCategory":1,"la1":30.2991,"la2":30.254,"lo1":-89.0895,"lo2":-89.0444,"dy":0.0017,"dx":0.0017,"nx":28,"ny":28,"refTime":"2025-04-29T03:00:00:Z","depth":0,"parameterNumber":3,"parameterNumberName":"V-component_of_WINDS"},"data":[0,0,0,0,0,0,0,0,0,0,0,0,0,0,0,0,0,0,0,0,0,0,0,0,0,0,0,0,0,0,0,0,0,0,0,0,0,0,0,0,0,0,0,0,0,0,0,0,0,0,0,0,0,0,0,0,0,0,4.9029,4.903,0,4.9054,4.9055,4.9055,4.8988,4.8986,4.8983,4.8982,4.9004,4.9006,4.9009,0,0,0,0,0,0,0,0,0,0,0,0,0,4.8921,4.8923,4.9029,4.903,4.903,4.9054,4.9055,4.9055,4.8988,4.8985,4.8983,4.8981,4.9003,4.9006,4.9009,0,0,0,0,0,0,0,0,0,0,0,0,0,4.8959,4.8924,4.9029,4.9,4.8997,4.9054,4.9055,4.9055,4.8989,4.8985,4.8982,4.8979,4.9002,4.9005,4.9009,4.9095,0,0,4.9021,4.9022,0,0,0,0,0,0,0,0,4.8957,4.8963,4.9004,4.9002,4.8999,4.9015,4.9024,4.9068,4.8989,4.8992,4.8981,4.8978,4.901,4.9013,4.9024,4.9096,4.9097,4.9021,4.9023,4.9025,4.9026,0,0,0,0,0,0,0,4.8954,4.8962,4.9039,4.9004,4.9002,4.8984,4.8986,4.9032,4.9018,4.8991,4.8986,4.8991,4.9008,4.9021,4.9024,4.9097,4.9021,4.9024,4.9027,4.9028,4.9242,4.9245,0,0,0,0,0,0,4.8956,4.896,4.9038,4.904,4.897,4.8989,4.8991,4.9013,4.9017,4.9015,4.8993,4.8987,4.9016,4.902,4.9025,4.9126,4.9025,4.9029,4.9031,4.9238,4.9243,4.9246,0,0,0,0,0,0,4.8954,4.8964,4.9037,4.8999,4.9007,4.8994,4.9019,4.9015,4.9028,4.9019,4.9015,4.9009,4.9013,4.9019,4.9078,4.9125,4.903,4.9034,4.9234,4.924,4.9244,4.9328,0,0,0,0,0,0,4.8951,4.8963,4.8996,4.9,4.9009,4.9092,4.9022,4.9018,4.9035,4.9027,4.9033,4.903,4.9011,4.9073,4.9082,4.9129,4.9037,4.923,4.9237,4.9243,4.9321,4.9336,4.9348,0,0,0,0,0,4.8948,4.9018,4.8999,4.9008,4.905,4.9095,4.91,4.9077,4.9039,4.9072,4.9066,4.903,4.9119,4.908,4.9089,4.9138,4.9227,4.9235,4.9242,4.9315,4.9333,4.9348,0,0,0,0,0,0,4.9019,4.9018,4.8996,4.907,4.9083,4.9083,4.9124,4.9096,4.912,4.9111,4.9081,4.9083,4.9148,4.9149,4.9105,4.9222,4.9166,4.9176,4.9219,4.9235,4.9248,4.9246,4.904,0,0,0,0,0,4.9044,4.9081,4.9078,4.9143,4.9151,4.9137,4.9155,4.9137,4.9149,4.9153,4.9152,4.9164,4.9194,4.9215,4.9242,4.9322,4.9322,4.936,4.9373,4.9384,4.9393,4.9435,4.9452,4.9271,4.9271,4.9271,0,0,4.9094,4.9098,4.9123,4.9158,4.9166,4.9204,4.9142,4.9184,4.9212,4.9159,4.9215,4.9215,4.9226,4.9296,4.9327,4.9299,4.9443,4.9394,4.9403,4.9405,4.9445,4.9462,4.9477,4.9277,4.9276,4.9275,0,0,4.9206,4.9213,4.9269,4.9279,4.9292,4.9282,4.9296,4.9301,4.9299,4.9355,4.9316,4.9349,4.9402,4.9412,4.9424,4.9541,4.9509,4.9551,4.962,4.9662,4.9676,4.9689,4.973,4.9746,4.956,4.956,4.956,0,4.9267,4.9324,4.9301,4.9347,4.9363,4.9319,4.9375,4.9385,4.9406,4.9418,4.9387,4.9453,4.9458,4.9529,4.9558,4.957,4.9584,4.955,4.9676,4.9688,4.97,4.9739,4.9755,4.9565,4.9565,4.9564,4.9564,0,4.9398,4.9439,4.9482,4.9506,4.9527,4.9578,4.9561,4.9585,4.9566,4.9559,4.9617,4.9621,4.9649,4.9665,4.9645,4.9734,4.9716,4.9681,4.9625,4.9722,4.9759,4.9774,4.9572,4.957,4.9569,4.9568,0,0,4.9554,4.9566,4.9582,4.9592,4.9605,4.9635,4.9684,4.9713,4.9734,4.975,4.979,4.9837,4.9805,4.9819,4.98,4.9837,4.993,4.9797,4.9797,4.9822,5.0028,5.0054,5.0072,4.9909,4.9912,4.9914,5.0027,0,4.9665,4.975,4.9731,4.9814,4.9851,4.981,4.9853,4.9865,4.986,4.989,4.9885,4.9919,4.9874,4.9882,4.9917,4.9911,4.9971,4.9903,4.9945,4.9947,4.9943,5.0091,5.0118,5.0224,5.0041,5.0043,5.0045,0,4.9804,4.9828,4.9916,4.9923,4.9938,4.9977,5.0002,5.0032,5.0044,5.0038,5.0055,5.003,5.0077,5.0022,5.0087,5.0041,5.0057,5.0058,5.0061,5.0064,5.0002,5.0097,5.0257,5.0273,5.0067,5.0066,5.0064,0,4.9909,4.9963,5.0023,5.0033,5.0043,5.0071,5.0077,5.0086,5.0105,5.0127,5.0139,5.0166,5.018,5.0201,5.0183,5.0145,5.0251,5.0194,5.0247,5.0248,5.0271,5.0269,5.0436,5.0283,5.0282,5.0282,5.0282,0,5.0034,5.0089,5.007,5.0107,5.0168,5.0145,5.0206,5.0206,5.0215,5.0251,5.0216,5.025,5.0225,5.0257,5.0243,5.0299,5.0306,5.0302,5.0298,5.0305,5.0305,5.0314,5.0306,5.0286,5.0285,5.0284,5.0284,0,5.0161,5.0151,5.0213,5.0218,5.0221,5.0266,5.0269,5.0303,5.0297,5.0342,5.0351,5.0341,5.0376,5.0361,5.0398,5.0389,5.0461,5.0447,5.0457,5.0453,5.0507,5.0502,5.0685,5.0707,5.054,5.0542,5.0543,0,5.0241,5.0283,5.0294,5.0316,5.0324,5.036,5.0379,5.0359,5.0381,5.0399,5.043,5.0463,5.0488,5.0547,5.0542,5.057,5.0556,5.0618,5.056,5.0566,5.0557,5.0554,5.0558,5.063,5.0631,5.0633,5.0634,0,5.0385,5.0378,5.0408,5.0438,5.0462,5.0484,5.0502,5.0522,5.0502,5.0528,5.0565,5.0584,5.0623,5.0656,5.0681,5.0685,5.0657,5.0653,5.0667,5.0674,5.0678,5.0677,5.0489,5.0649,5.0647,5.0646,5.0645,5.0645,5.0491,5.0526,5.054,5.0575,5.0587,5.0605,5.0637,5.0636,5.0666,5.0697,5.0683,5.0726,5.0737,5.0768,5.0777,5.0809,5.0785,5.0805,5.081,5.0815,5.0822,5.0674,5.0814,5.0813,5.0813,5.0813,5.0812,0,5.0632,5.0639,5.0672,5.07,5.0727,5.07,5.0719,5.0743,5.0782,5.0796,5.0822,5.0864,5.0896,5.0895,5.0924,5.095,5.0938,5.0959,5.0956,5.0958,5.0842,5.0827,5.0968,5.0968,5.0968,5.0968,5.0968,5.0968,5.0709,5.0768,5.0763,5.0828,5.0834,5.0876,5.089,5.0906,5.0917,5.0967,5.0994,5.0993,5.1001,5.1031,5.1059,5.1057,5.107,5.1095,5.1089,5.0981,5.0966,5.0951,5.0937,5.1098,5.1098,5.1202,5.1203,5.1203]}]]